Regional Weather Roundup
Issued by NWS

Home | Current Version | Previous Version | Text Only | Print | Product List | Glossary On
Versions: 1 2 3 4 5 6 7 8 9 10 11 12 13 14 15 16 17 18 19 20 21 22 23 24 25 26 27 28 29 30 31 32 33 34 35 36 37 38 39 40 41 42 43 44 45 46 47 48 49 50
000
ASUS43 KLSX 300359
RWRMO

WEATHER SUMMARY FOR MISSOURI
NATIONAL WEATHER SERVICE SPRINGFIELD MO
1100 PM CDT WED OCT 29 2014

NOTE: "FAIR" INDICATES FEW OR NO CLOUDS BELOW 12,000 FEET WITH NO
       SIGNIFICANT WEATHER AND/OR OBSTRUCTIONS TO VISIBILITY.
       CURRENT SKY AND/OR WEATHER CONDITIONS ARE NOT AVAILABLE FOR
       CHILLICOTHE AND FARMINGTON.

MOZ001>031-035>038-043-044-053-054-300500-
...NORTHERN AND WESTERN MISSOURI...

CITY           SKY/WX    TMP DP  RH WIND       PRES   REMARKS
KANSAS CTY INT CLEAR     45  34  65 SE7       30.10F
KANSAS C DTWN  CLEAR     53  34  48 CALM      30.10F
LEE`S SUMMIT   CLEAR     50  32  50 SE6       30.11F
ST JOSEPH      CLEAR     39  33  79 CALM      30.10S
KIRKSVILLE     CLEAR     36  33  89 CALM      30.15S

$$
MOZ066>068-077>081-088>096-101>105-300500-
...SOUTHWEST MISSOURI...

CITY           SKY/WX    TMP DP  RH WIND       PRES   REMARKS
SPRINGFIELD    CLEAR     44  38  79 SE5       30.15S
JOPLIN         CLEAR     50  38  63 SE5       30.14F

$$
MOZ032>034-039>042-045>050-055>058-069>072-300500-
...CENTRAL MISSOURI...

CITY           SKY/WX    TMP DP  RH WIND       PRES   REMARKS
COLUMBIA       CLEAR     44  33  65 SE5       30.16S
JEFFERSON CITY CLEAR     40  35  83 CALM      30.16F
ROLLA          CLEAR     38  32  79 CALM      30.15S
SEDALIA        CLEAR     45  34  65 SE6       30.15F
OSAGE BEACH    CLEAR     41  32  70 CALM      30.16S

$$
MOZ051-052-059>065-300500-
...EAST CENTRAL MISSOURI...

CITY           SKY/WX    TMP DP  RH WIND       PRES   REMARKS
ST LOUIS INTL  CLEAR     45  37  73 SW3       30.17S
SPIRIT OF STL  CLEAR     38  36  92 CALM      30.17S
ST CHARLES     CLEAR     41  37  86 SW5       30.16S

$$
MOZ072>076-082>087-097>100-106>115-300500-
...SOUTH CENTRAL AND SOUTHEAST MISSOURI...

CITY           SKY/WX    TMP DP  RH WIND       PRES   REMARKS
CAPE GIRARDEAU CLEAR     40  37  89 CALM      30.17R
FARMINGTON     CLEAR     39  32  75 CALM      30.18S
POPLAR BLUFF   CLEAR     41  35  79 CALM      30.16S
WEST PLAINS    CLEAR     42  34  73 CALM      30.18S

$$



USA.gov is the U.S. government's official web portal to all federal, state and local government web resources and services.